Weather History for Russell, KS

Change the Weather History Date:

Wednesday, February 20, 2013

  Actual Average Record
Temperature  
Mean Temperature 24 °F -  
Max Temperature 26 °F 48 °F 80 °F (1981)
Min Temperature 21 °F 25 °F 6 °F (1955)
Degree Days  
Heating Degree Days 42    
Moisture  
Dew Point 19 °F    
Average Humidity 82    
Maximum Humidity 93    
Minimum Humidity 42    
Precipitation  
Precipitation 0.17 in - - ()
Sea Level Pressure  
Sea Level Pressure 30.07 in    
Wind  
Wind Speed 17 mph (East)    
Max Wind Speed 23 mph    
Max Gust Speed 29 mph    
Visibility 2 miles    
Events Fog , Snow , Thunderstorm    
Averages and records for this station are not official NWS values.
T = Trace of Precipitation, MM = Missing Value Source: NWS Daily Summary

Daily Weather History Graph

Daily Weather History Graph

Search for Another Location

Airport:

Trip Planner

Search our weather history database for the weather conditions in past years. The results will help you decide how hot, cold, wet, or windy it might be!

Date:

Astronomy

Feb. 20, 2013 Rise Set
Actual Time 7:19 AM CST 6:18 PM CST
Civil Twilight 6:52 AM CST 6:45 PM CST
Nautical Twilight 6:21 AM CST 7:16 PM CST
Astronomical Twilight 5:50 AM CST 7:47 PM CST
Moon 1:43 PM CST (2/20) 3:39 AM CST (2/20)
Length of Visible Light 11h 53m
Length of Day
10h 58m
Waxing Gibbous, 76% of the Moon is Illuminated
Feb 20
Waxing Gibbous
Feb 25
Full
Mar 4
Last Quarter
Mar 11
New
Mar 19
First Quarter

Hourly Weather History & Observations

Time (CST) Temp. Windchill Dew Point Humidity Pressure Visibility Wind Dir Wind Speed Gust Speed Precip Events Conditions
12:53 AM 23.0 °F 9.6 °F 6.1 °F 48% 30.24 in 10.0 mi East 16.1 mph - N/A   Clear
1:53 AM 23.0 °F 10.1 °F 3.9 °F 44% 30.22 in 10.0 mi East 15.0 mph - N/A   Clear
2:53 AM 23.0 °F 10.6 °F 3.9 °F 44% 30.21 in 10.0 mi East 13.8 mph - N/A   Clear
3:53 AM 24.1 °F 11.0 °F 3.9 °F 42% 30.19 in 10.0 mi East 16.1 mph - N/A   Mostly Cloudy
4:53 AM 24.1 °F 11.0 °F 3.9 °F 42% 30.19 in 10.0 mi East 16.1 mph - N/A   Overcast
5:53 AM 21.9 °F 9.8 °F 5.0 °F 48% 30.22 in 10.0 mi ESE 12.7 mph - N/A   Clear
6:53 AM 21.9 °F 8.7 °F 6.1 °F 51% 30.22 in 10.0 mi East 15.0 mph - N/A   Clear
7:53 AM 23.0 °F 10.6 °F 7.0 °F 50% 30.22 in 10.0 mi East 13.8 mph - N/A   Overcast
8:26 AM 23.0 °F 10.1 °F 10.4 °F 59% 30.15 in 2.5 mi ESE 15.0 mph - 0.00 in Snow Light Snow
8:36 AM 21.2 °F 7.3 °F 12.2 °F 68% 30.16 in 1.5 mi ESE 16.1 mph 21.9 mph 0.00 in Snow Light Snow
8:53 AM 21.2 °F 7.8 °F 15.8 °F 80% 30.15 in 1.2 mi ESE 15.0 mph - N/A Snow Light Snow
9:16 AM 21.2 °F 7.3 °F 15.8 °F 80% 30.15 in 0.8 mi ESE 16.1 mph 24.2 mph 0.00 in Snow Light Snow
9:53 AM 21.9 °F 7.8 °F 18.0 °F 85% 30.22 in 0.5 mi ESE 17.3 mph 25.3 mph 0.00 in Fog , Snow Snow
10:33 AM 21.2 °F 6.4 °F 19.4 °F 93% 30.13 in 0.8 mi East 18.4 mph - 0.00 in Snow Light Snow
10:43 AM 23.0 °F 7.6 °F 19.4 °F 86% 30.12 in 1.2 mi ESE 21.9 mph - 0.00 in Snow Light Snow
10:53 AM 23.0 °F 7.2 °F 19.4 °F 86% 30.12 in 1.0 mi ESE 23.0 mph 28.8 mph N/A Snow Light Snow
11:18 AM 23.0 °F 8.3 °F 19.4 °F 86% 30.11 in 1.5 mi East 19.6 mph - 0.00 in Snow Light Snow
11:31 AM 23.0 °F 9.2 °F 19.4 °F 86% 30.10 in 2.0 mi East 17.3 mph 26.5 mph 0.00 in Snow Light Snow
11:49 AM 23.0 °F 8.3 °F 19.4 °F 86% 30.10 in 1.2 mi East 19.6 mph - 0.00 in Snow Light Snow
11:53 AM 23.0 °F 8.7 °F 19.9 °F 88% 30.18 in 1.0 mi East 18.4 mph - 0.00 in Snow Light Snow
12:05 PM 23.0 °F 8.3 °F 19.4 °F 86% 30.09 in 0.8 mi East 19.6 mph - 0.00 in Snow Light Snow
12:20 PM 23.0 °F 9.6 °F 19.4 °F 86% 30.09 in 0.8 mi ESE 16.1 mph 24.2 mph 0.01 in Snow Light Snow
12:37 PM 23.0 °F 9.2 °F 19.4 °F 86% 30.08 in 1.5 mi East 17.3 mph - 0.01 in Snow Light Snow
12:53 PM 24.1 °F 11.5 °F 21.0 °F 88% 30.15 in 1.2 mi East 15.0 mph - 0.01 in Snow Light Snow
1:20 PM 24.8 °F 12.4 °F 21.2 °F 86% 30.06 in 1.2 mi ESE 15.0 mph - 0.01 in Snow Light Snow
1:29 PM 24.8 °F 11.9 °F 21.2 °F 86% 30.05 in 2.0 mi East 16.1 mph - 0.01 in Snow Light Snow
1:45 PM 24.8 °F 11.5 °F 21.2 °F 86% 30.04 in 1.8 mi East 17.3 mph - 0.02 in Snow Light Snow
1:49 PM 24.8 °F 11.1 °F 21.2 °F 86% 30.03 in 2.0 mi East 18.4 mph - 0.02 in Snow Light Snow
1:53 PM 25.0 °F 10.6 °F 21.9 °F 88% 30.11 in 2.5 mi East 20.7 mph - 0.02 in Snow Light Snow
2:00 PM 24.8 °F 11.1 °F 21.2 °F 86% 30.03 in 0.8 mi East 18.4 mph - 0.00 in Snow Light Snow
2:08 PM 24.8 °F 11.1 °F 21.2 °F 86% 30.03 in 0.5 mi East 18.4 mph - 0.01 in Fog , Snow Snow
2:33 PM 24.8 °F 11.9 °F 21.2 °F 86% 30.01 in 0.5 mi East 16.1 mph - 0.02 in Fog , Snow , Thunderstorm Snow
2:42 PM 24.8 °F 12.4 °F 21.2 °F 86% 30.01 in 0.2 mi East 15.0 mph - 0.02 in Fog , Snow Heavy Snow
2:53 PM 24.1 °F 10.6 °F 21.9 °F 91% 30.09 in 0.5 mi East 17.3 mph - 0.03 in Fog , Snow Snow
3:25 PM 24.8 °F 10.7 °F 21.2 °F 86% 29.99 in 1.0 mi East 19.6 mph - 0.01 in Snow Light Snow
3:36 PM 24.8 °F 10.7 °F 21.2 °F 86% 29.99 in 3.0 mi East 19.6 mph - 0.01 in Snow Light Snow
3:48 PM 24.8 °F 10.3 °F 21.2 °F 86% 29.98 in 3.0 mi East 20.7 mph - 0.02 in Snow Light Snow
3:53 PM 25.0 °F 10.2 °F 21.9 °F 88% 30.05 in 3.0 mi East 21.9 mph - 0.02 in Snow Light Snow
4:16 PM 24.8 °F 10.3 °F 21.2 °F 86% 29.99 in 1.8 mi East 20.7 mph - 0.00 in Snow Light Snow
4:28 PM 26.6 °F 14.3 °F 23.0 °F 86% 29.98 in 3.0 mi East 16.1 mph - 0.00 in Snow Light Snow
4:36 PM 26.6 °F 14.3 °F 23.0 °F 86% 29.98 in 1.8 mi East 16.1 mph - 0.00 in Snow Light Snow
4:53 PM 26.6 °F 12.7 °F 23.0 °F 86% 29.97 in 1.2 mi East 20.7 mph - N/A Snow Light Snow
5:02 PM 26.6 °F 13.8 °F 23.0 °F 86% 29.97 in 0.8 mi East 17.3 mph 28.8 mph 0.00 in Snow Light Snow
5:10 PM 26.6 °F 12.4 °F 23.0 °F 86% 29.97 in 1.2 mi East 21.9 mph 26.5 mph 0.00 in Snow Light Snow
5:30 PM 26.6 °F 13.4 °F 23.0 °F 86% 29.97 in 0.8 mi East 18.4 mph - 0.01 in Snow Light Snow
5:37 PM 26.6 °F 13.4 °F 23.0 °F 86% 29.97 in 1.2 mi East 18.4 mph - 0.01 in Snow Light Snow
5:53 PM 25.0 °F 11.7 °F 23.0 °F 92% 30.05 in 1.0 mi East 17.3 mph - 0.01 in Snow Light Snow
6:24 PM 24.8 °F 11.9 °F 23.0 °F 93% 29.97 in 2.0 mi East 16.1 mph - 0.01 in Snow Light Snow
6:31 PM 24.8 °F 12.4 °F 23.0 °F 93% 29.97 in 1.5 mi East 15.0 mph - 0.01 in Snow Light Snow
6:46 PM 24.8 °F 12.4 °F 23.0 °F 93% 29.97 in 1.2 mi East 15.0 mph - 0.01 in Snow Light Snow
6:53 PM 25.0 °F 13.6 °F 23.0 °F 92% 30.05 in 1.0 mi East 12.7 mph - 0.01 in Snow Light Snow
7:25 PM 24.8 °F 12.4 °F 23.0 °F 93% 29.99 in 0.5 mi East 15.0 mph - 0.01 in Fog , Snow Snow
7:33 PM 24.8 °F 13.4 °F 23.0 °F 93% 29.99 in 0.5 mi East 12.7 mph - 0.02 in Fog , Snow Snow
7:53 PM 25.0 °F 11.7 °F 23.0 °F 92% 30.07 in 0.5 mi East 17.3 mph - 0.03 in Fog , Snow Snow
8:53 PM 24.1 °F 9.4 °F 21.9 °F 91% 30.07 in 0.5 mi East 20.7 mph - 0.03 in Fog , Snow Snow
9:49 PM 24.8 °F 10.7 °F 21.2 °F 86% 30.00 in 1.0 mi East 19.6 mph - 0.00 in Snow Light Snow
9:53 PM 24.1 °F 9.4 °F 21.0 °F 88% 30.07 in 1.0 mi East 20.7 mph - 0.00 in Snow Light Snow
10:02 PM 24.8 °F 10.7 °F 21.2 °F 86% 29.99 in 0.8 mi East 19.6 mph - 0.00 in Snow Light Snow
10:35 PM 23.0 °F 8.3 °F 21.2 °F 93% 29.99 in 1.0 mi East 19.6 mph - 0.01 in Snow Light Snow
10:53 PM 23.0 °F 7.2 °F 19.9 °F 88% 30.05 in 1.2 mi East 23.0 mph - 0.01 in Snow Light Snow
11:39 PM 21.2 °F 6.0 °F 19.4 °F 93% 29.98 in 2.0 mi East 19.6 mph 25.3 mph 0.00 in Snow Light Snow
11:53 PM 21.9 °F 6.9 °F 19.0 °F 89% 30.04 in 1.2 mi East 19.6 mph 27.6 mph 0.00 in Snow Light Snow